Content
SEND FEEDBACK

Daily
Averages
Monthly
Summary
United States of America

ST. LOUIS, MISSOURI


Home > North America > United States > Missouri
Elevation: 535 feet     Latitude: 38 45N     Longitude: 090 22W

WEATHER
 
SELECT A DAY
Number of Records: 196,364;   Date Range: 1/1/95 - 7/26/14
 
SHARE

PRINT THIS DATA

[ ← Previous Day ]
WEATHER ALMANAC - MAY 20, 2013
[ Next Day → ]
[ °C ]   °F
Weather ElementAverageHighLow
Temperature68.9 °F80.1 °F (1:54 pm)62.6 °F (3:46 am)
Dewpoint63.8 °F69.8 °F (8:42 pm)60.1 °F (3:54 am)
Humidity84.5 %94 % (3:46 am)60 % (11:54 am)
Barometer29.80 in29.88 in (3:46 am)29.69 in (8:12 pm)
Wind Speed8.5 mph35.7 mph (3:31 am)
Wind Gust54.1 mph (3:31 am)
Weather ElementAverage
Visibility6.7 mi
Wind DirectionSSW (187 °)

Weather ElementTotal
Precipitation4.52 in
Cooling Degree Days6.3 (Base 65)
Growing Degree Days21.4 (Base 50)
Averaged from 47 records on May 20, 2013
WEATHER CONDITIONS BREAKOUT
WIND DIRECTION BREAKOUT
WEATHER BY HOUR - MAY 20, 2013
[ °C ]   °F
Local TimeTemperatureDewpointHumidityBarometerVisibilityWind DirectionWind SpeedGust SpeedPrecipitationEventsConditions
1:54 AM79.0 °F66.9 °F66 %29.72 in10.0 miSouth (190°)12.7 mph25.3 mphClear
2:54 AM78.8 °F66.2 °F65 %29.76 in10.0 miSSW (210°)11.5 mph18.4 mphClear
3:31 AM68.0 °F60.8 °F78 %29.86 in5.0 miWNW (300°)35.7 mph54.1 mph0.03 inRain-ThunderstormLight Rain
3:38 AM64.4 °F60.8 °F88 %29.87 in2.5 miWest (280°)17.3 mph44.9 mph0.09 inRain-ThunderstormHeavy Rain
3:46 AM62.6 °F60.8 °F94 %29.88 in7.0 miWNW (290°)6.9 mph24.2 mph0.09 inRain-ThunderstormLight Rain
3:54 AM63.0 °F60.1 °F90 %29.86 in7.0 miWest (270°)3.5 mph0.11 inRain-ThunderstormRain
4:16 AM62.6 °F60.8 °F94 %29.88 in5.0 miCalm0.02 inRainRain
4:54 AM63.0 °F60.1 °F90 %29.84 in10.0 miEast (100°)4.6 mph0.04 inRain-ThunderstormLight Rain
5:32 AM62.6 °F60.8 °F94 %29.84 in6.0 miSE (130°)5.8 mph0.03 inRainLight Rain
5:54 AM63.0 °F60.1 °F90 %29.81 in5.0 miSSE (160°)4.6 mph0.09 inRainLight Rain
6:29 AM64.4 °F60.8 °F88 %29.88 in2.5 miVariable5.8 mph0.09 inRain-ThunderstormThunderstorms and Rain
6:36 AM62.6 °F60.8 °F94 %29.86 in1.2 miSE (130°)4.6 mph0.15 inRain-ThunderstormThunderstorms and Rain
6:40 AM62.6 °F60.8 °F94 %29.87 in3.0 miSSE (150°)5.8 mph0.15 inRain-ThunderstormLight Thunderstorms and Rain
6:54 AM63.0 °F60.1 °F90 %29.86 in8.0 miSSE (150°)8.1 mph0.16 inRain-ThunderstormLight Rain
7:02 AM62.6 °F60.8 °F94 %29.87 in10.0 miSE (140°)8.1 mph0.00 inRainLight Rain
7:54 AM64.9 °F61.0 °F87 %29.86 in10.0 miSSE (150°)6.9 mph0.00 inMostly Cloudy
8:54 AM64.4 °F60.8 °F88 %29.88 in10.0 miSSE (160°)6.9 mphOvercast
9:21 AM66.2 °F62.6 °F88 %29.88 in10.0 miSouth (170°)3.5 mphThunderstormOvercast
9:36 AM68.0 °F62.6 °F83 %29.86 in10.0 miSE (140°)4.6 mphMostly Cloudy
9:54 AM69.1 °F63.0 °F81 %29.82 in10.0 miSE (140°)9.2 mphScattered Clouds
10:54 AM73.0 °F64.0 °F73 %29.80 in10.0 miSE (140°)12.7 mphScattered Clouds
11:54 AM77.0 °F62.1 °F60 %29.82 in10.0 miSouth (170°)9.2 mph19.6 mphScattered Clouds
12:54 PM78.8 °F64.4 °F61 %29.84 in10.0 miSE (140°)10.4 mphMostly Cloudy
1:54 PM80.1 °F66.0 °F62 %29.81 in10.0 miSSW (200°)10.4 mphMostly Cloudy
2:54 PM80.1 °F66.9 °F64 %29.79 in10.0 miSSW (200°)6.9 mph17.3 mphMostly Cloudy
3:54 PM80.1 °F68.0 °F67 %29.78 in10.0 miSouth (180°)8.1 mphOvercast
4:54 PM77.0 °F68.0 °F74 %29.76 in10.0 miSSE (160°)5.8 mphOvercast
5:54 PM77.0 °F69.1 °F76 %29.73 in10.0 miSSE (150°)4.6 mphOvercast
6:54 PM77.0 °F69.1 °F76 %29.70 in10.0 miVariable4.6 mphOvercast
7:15 PM77.0 °F68.0 °F74 %29.70 in10.0 miSE (140°)6.9 mphThunderstormOvercast
7:54 PM72.0 °F66.9 °F84 %29.71 in4.0 miNW (320°)6.9 mph0.06 inRain-ThunderstormThunderstorms and Rain
8:12 PM71.6 °F68.0 °F88 %29.69 in2.5 miWest (280°)10.4 mph16.1 mph0.09 inRain-ThunderstormThunderstorms and Rain
8:20 PM71.6 °F68.0 °F88 %29.72 in3.0 miSW (220°)12.7 mph16.1 mph0.11 inRain-ThunderstormLight Thunderstorms and Rain
8:42 PM71.6 °F69.8 °F94 %29.72 in4.0 miWest (270°)5.8 mph0.15 inRain-ThunderstormLight Thunderstorms and Rain
8:47 PM71.6 °F69.8 °F94 %29.71 in2.0 miWNW (300°)5.8 mph0.27 inRainHeavy Rain
8:50 PM71.6 °F69.8 °F94 %29.70 in2.0 miNW (310°)3.5 mph0.32 inRain-ThunderstormHeavy Thunderstorms and Rain
8:54 PM71.6 °F69.8 °F94 %29.70 in2.0 miSouth (170°)4.6 mphRain-ThunderstormHeavy Thunderstorms and Rain
9:46 PM66.2 °F62.6 °F88 %29.81 in4.0 miNW (320°)18.4 mph39.1 mph0.04 inRain-ThunderstormLight Thunderstorms and Rain
9:48 PM66.2 °F62.6 °F88 %29.80 in2.5 miNW (320°)19.6 mph27.6 mph0.14 inRain-ThunderstormThunderstorms and Rain
10:05 PM64.4 °F62.6 °F94 %29.83 in0.8 miWest (260°)10.4 mph41.4 mph0.33 inRain-ThunderstormHeavy Thunderstorms and Rain
10:12 PM64.4 °F62.6 °F94 %29.79 in2.0 miWest (280°)9.2 mph0.36 inRain-ThunderstormHeavy Thunderstorms and Rain
10:20 PM64.4 °F62.6 °F94 %29.80 in5.0 miWSW (250°)5.8 mph0.39 inRain-ThunderstormLight Thunderstorms and Rain
10:28 PM64.4 °F62.6 °F94 %29.83 in10.0 miSouth (190°)6.9 mph0.39 inRain-ThunderstormLight Thunderstorms and Rain
10:54 PM64.0 °F62.1 °F93 %29.83 in7.0 miSouth (180°)8.1 mph0.43 inRain-ThunderstormLight Thunderstorms and Rain
11:28 PM64.4 °F60.8 °F88 %29.83 in7.0 miSSE (150°)8.1 mph0.10 inRainRain
11:41 PM64.4 °F60.8 °F88 %29.80 in6.0 miESE (120°)6.9 mph16.1 mph0.14 inRain-ThunderstormRain
11:54 PM64.0 °F61.0 °F90 %29.71 in10.0 miESE (110°)9.2 mph0.15 inRain-ThunderstormLight Rain
Hourly data recorded from KSUS, located miles away from St. Louis, Missouri







STORIES FROM OUR PARTNERS